This is the latest recevied weather packets stored in our database for station/object K2CAT. If no packets are shown the sender has not sent any weather packets the latest 10 day(s).
| Time | Temp. | Humidity | Pressure | Rain* | Wind** | Luminosity | Snow |
|---|---|---|---|---|---|---|---|
| 1777035021 | 9.44° C | 46% | 1012.2 hPa | 0 mm | - | 116 W/m² | - |
| 1777034718 | 9.44° C | 46% | 1012 hPa | 0 mm | - | 109 W/m² | - |
| 1777034415 | 9.44° C | 48% | 1012.1 hPa | 0 mm | - | 128 W/m² | - |
| 1777034113 | 9.44° C | 46% | 1012.2 hPa | 0 mm | - | 82 W/m² | - |
| 1777033811 | 10° C | 47% | 1012.4 hPa | 0 mm | - | 108 W/m² | - |
| 1777033509 | 10° C | 48% | 1012 hPa | 0 mm | - | 99 W/m² | - |
| 1777033206 | 10° C | 47% | 1012.2 hPa | 0 mm | - | 96 W/m² | - |
| 1777032902 | 10° C | 49% | 1012.1 hPa | 0 mm | - | 101 W/m² | - |
| 1777032598 | 9.44° C | 48% | 1012.1 hPa | 0 mm | - | 81 W/m² | - |
| 1777032293 | 9.44° C | 48% | 1011.9 hPa | 0 mm | - | 86 W/m² | - |
| 1777031989 | 9.44° C | 48% | 1012 hPa | 0 mm | - | 100 W/m² | - |
| 1777031684 | 10° C | 49% | 1011.7 hPa | 0 mm | - | 92 W/m² | - |
| 1777031379 | 9.44° C | 50% | 1012.1 hPa | 0 mm | - | 91 W/m² | - |
| 1777031075 | 9.44° C | 51% | 1011.9 hPa | 0 mm | - | 68 W/m² | - |
| 1777030772 | 8.89° C | 52% | 1011.7 hPa | 0 mm | - | 52 W/m² | - |
| 1777030471 | 8.89° C | 49% | 1011.6 hPa | 0 mm | - | 37 W/m² | - |
| 1777030167 | 8.89° C | 49% | 1011.9 hPa | 0 mm | - | 28 W/m² | - |
| 1777029864 | 8.89° C | 48% | 1011.6 hPa | 0 mm | - | 21 W/m² | - |
| 1777029561 | 8.89° C | 49% | 1011.5 hPa | 0 mm | - | 19 W/m² | - |
| 1777029259 | 8.89° C | 48% | 1011.5 hPa | 0 mm | - | 17 W/m² | - |
| 1777028954 | 8.89° C | 48% | 1011.2 hPa | 0 mm | - | 12 W/m² | - |
| 1777028653 | 8.89° C | 46% | 1011.5 hPa | 0 mm | - | 16 W/m² | - |
| 1777028348 | 8.89° C | 46% | 1011.3 hPa | 0 mm | - | 8 W/m² | - |
| 1777028044 | 8.89° C | 48% | 1011.5 hPa | 0 mm | - | 8 W/m² | - |
| 1777027739 | 8.89° C | 47% | 1011.3 hPa | 0 mm | - | 4 W/m² | - |
* Rain latest hour (hover to see other rain measurements)
** Current wind speed in m/s (hover to see current wind gust speed)